Weather History for Pine Ridge, SD

Change the Weather History Date:

Tuesday, May 7, 2013

  Actual Average Record
Temperature  
Mean Temperature 61 °F 52 °F  
Max Temperature 74 °F 67 °F 87 °F (2004)
Min Temperature 47 °F 38 °F 25 °F (1998)
Degree Days  
Heating Degree Days 4 13  
Month to date heating degree days 152 96  
Since 1 July heating degree days 6931 6916  
Cooling Degree Days 0 0  
Month to date cooling degree days 0 0  
Year to date cooling degree days 0 0  
Growing Degree Days 10 (Base 50)    
Moisture  
Dew Point 41 °F    
Average Humidity 58    
Maximum Humidity 86    
Minimum Humidity 29    
Precipitation  
Precipitation 0.24 in 0.09 in 0.86 in (2000)
Month to date precipitation 0.24 0.68  
Year to date precipitation 2.71 4.25  
Sea Level Pressure  
Sea Level Pressure 29.86 in    
Wind  
Wind Speed 17 mph (SSE)    
Max Wind Speed 31 mph    
Max Gust Speed 43 mph    
Visibility 9 miles    
Events Rain , Thunderstorm    
T = Trace of Precipitation, MM = Missing Value Source: NWS Daily Summary

Daily Weather History Graph

Daily Weather History Graph

Search for Another Location

Airport:

Trip Planner

Search our weather history database for the weather conditions in past years. The results will help you decide how hot, cold, wet, or windy it might be!

Date:

Astronomy

May. 07, 2013 Rise Set
Actual Time 5:35 AM MDT 7:58 PM MDT
Civil Twilight 5:03 AM MDT 8:30 PM MDT
Nautical Twilight 4:24 AM MDT 9:09 PM MDT
Astronomical Twilight 3:40 AM MDT 9:54 PM MDT
Moon 4:14 AM MDT (5/7) 5:57 PM MDT (5/7)
Length of Visible Light 15h 26m
Length of Day
14h 22m
Waning Crescent, 5% of the Moon is Illuminated
May 7
Waning Crescent
May 9
New
May 17
First Quarter
May 24
Full
May 31
Last Quarter

Hourly Weather History & Observations

Time (MDT) Temp. Dew Point Humidity Pressure Visibility Wind Dir Wind Speed Gust Speed Precip Events Conditions
12:52 AM 52.0 °F 30.0 °F 43% 29.92 in 10.0 mi South 5.8 mph - N/A   Clear
2:52 AM 55.0 °F 35.1 °F 47% 29.88 in 10.0 mi South 18.4 mph 27.6 mph N/A   Clear
3:52 AM 55.9 °F 34.0 °F 44% 29.88 in 10.0 mi South 21.9 mph 28.8 mph N/A   Clear
4:52 AM 55.0 °F 34.0 °F 45% 29.89 in 10.0 mi South 23.0 mph 29.9 mph N/A   Clear
5:52 AM 54.0 °F 37.0 °F 53% 29.88 in 10.0 mi South 25.3 mph 36.8 mph N/A   Clear
6:52 AM 55.9 °F 37.9 °F 51% 29.89 in 10.0 mi South 26.5 mph 35.7 mph N/A   Clear
7:52 AM 59.0 °F 41.0 °F 51% 29.89 in 10.0 mi South 23.0 mph 32.2 mph N/A   Clear
8:52 AM 62.1 °F 42.1 °F 48% 29.89 in 10.0 mi South 24.2 mph 32.2 mph N/A   Clear
9:52 AM 64.9 °F 43.0 °F 45% 29.88 in 10.0 mi South 25.3 mph 32.2 mph N/A   Clear
10:52 AM 64.9 °F 43.0 °F 45% 29.88 in 10.0 mi South 24.2 mph 31.1 mph N/A   Clear
11:52 AM 68.0 °F 43.0 °F 40% 29.88 in 10.0 mi South 21.9 mph 27.6 mph N/A   Scattered Clouds
12:52 PM 71.1 °F 43.0 °F 36% 29.85 in 10.0 mi South 18.4 mph 27.6 mph N/A   Mostly Cloudy
1:52 PM 72.0 °F 39.9 °F 31% 29.82 in 10.0 mi South 13.8 mph - N/A   Scattered Clouds
2:52 PM 73.0 °F 42.1 °F 33% 29.79 in 10.0 mi SSW 13.8 mph - 0.00 in Rain Light Rain
3:52 PM 73.9 °F 42.1 °F 32% 29.77 in 10.0 mi South 15.0 mph 20.7 mph 0.00 in   Clear
4:35 PM 73.4 °F 39.2 °F 29% 29.82 in 10.0 mi South 8.1 mph - N/A Thunderstorm Clear
4:52 PM 73.0 °F 39.0 °F 29% 29.76 in 10.0 mi SSW 10.4 mph - N/A   Partly Cloudy
5:03 PM 71.6 °F 37.4 °F 29% 29.83 in 10.0 mi South 15.0 mph - N/A Thunderstorm Scattered Clouds
5:18 PM 69.8 °F 37.4 °F 31% 29.83 in 10.0 mi SSW 11.5 mph - N/A   Mostly Cloudy
5:29 PM 69.8 °F 37.4 °F 31% 29.83 in 10.0 mi SSW 13.8 mph - N/A Thunderstorm Mostly Cloudy
5:52 PM 64.0 °F 43.0 °F 46% 29.79 in 10.0 mi South 11.5 mph - 0.00 in Rain , Thunderstorm Light Rain
6:38 PM 53.6 °F 46.4 °F 77% 29.90 in 4.0 mi ENE 26.5 mph 35.7 mph 0.08 in Rain , Thunderstorm Heavy Thunderstorms and Rain
6:44 PM 51.8 °F 46.4 °F 82% 29.91 in 1.8 mi East 26.5 mph 36.8 mph 0.19 in Rain , Thunderstorm Heavy Thunderstorms and Rain
6:52 PM 53.1 °F 46.9 °F 80% 29.87 in 3.0 mi East 23.0 mph 36.8 mph 0.24 in Rain , Thunderstorm Rain
7:20 PM 53.6 °F 48.2 °F 82% 29.89 in 10.0 mi ESE 19.6 mph 28.8 mph 0.00 in   Partly Cloudy
7:52 PM 54.0 °F 46.9 °F 77% 29.86 in 10.0 mi ESE 16.1 mph - 0.00 in   Clear
8:52 PM 53.1 °F 46.0 °F 77% 29.86 in 10.0 mi SSE 19.6 mph 29.9 mph N/A   Mostly Cloudy
9:52 PM 53.1 °F 45.0 °F 74% 29.87 in 10.0 mi SSE 9.2 mph - N/A   Mostly Cloudy
10:52 PM 48.9 °F 45.0 °F 86% 29.87 in 10.0 mi Calm Calm - N/A   Clear
11:52 PM 48.9 °F 44.1 °F 83% 29.88 in 10.0 mi East 8.1 mph - N/A   Clear